Regional Weather Roundup
Issued by NWS

Home | Current Version | Previous Version | Text Only | Print | Product List | Glossary On
Versions: 1 2 3 4 5 6 7 8 9 10 11 12 13 14 15 16 17 18 19 20 21 22 23 24 25 26 27 28 29 30 31 32 33 34 35 36 37 38 39 40 41 42 43 44 45 46 47 48 49 50
000
ASUS43 KTOP 180408
RWRKS

WEATHER ROUNDUP FOR KANSAS
NATIONAL WEATHER SERVICE GOODLAND KS
1100 PM CDT WED SEP 17 2014

NOTE:  "FAIR" INDICATES FEW OR NO CLOUDS BELOW 12,000 FEET WITH NO
SIGNIFICANT WEATHER AND/OR OBSTRUCTIONS TO VISIBILITY.

KSZ001>006-013>018-027>032-041>047-180500-
NORTHWEST KANSAS

CITY           SKY/WX    TMP DP  RH WIND       PRES   REMARKS
GOODLAND       CLEAR     63  54  72 S12       29.96S
HAYS           MOCLDY    72  64  78 E14       29.90F
HILL CITY      MOCLDY    71  66  84 E15       29.91F
RUSSELL        MOCLDY    70  66  87 E13       29.89R
$$

KSZ061>065-074>080-084>089-180500-
SOUTHWEST KANSAS

CITY           SKY/WX    TMP DP  RH WIND       PRES   REMARKS
DODGE CITY     CLOUDY    75  60  59 SW10      29.91R
ELKHART          N/A     70  57  63 SW7         N/A
GARDEN CITY    MOCLDY    70  61  73 SW7       29.91S
GREAT BEND     PTCLDY    73  66  78 E9        29.89R
LIBERAL        CLOUDY    72  59  64 SW8       29.95R
PRATT          CLOUDY    72  59  64 S8        29.89R
$$

KSZ066>073-081>083-090>101-180500-
SOUTHEAST KANSAS

CITY           SKY/WX    TMP DP  RH WIND       PRES   REMARKS
CHANUTE        MOCLDY    72  69  90 E9        29.91R
COFFEYVILLE    CLOUDY    73  66  78 E5        29.89R
HUTCHINSON     MOCLDY    73  67  81 E8        29.88R
MEDICINE LODGE   N/A     79  63  57 CALM      29.85S
NEWTON         MOCLDY    72  63  73 E9        29.90S
PARSONS        CLOUDY    72  64  76 VRB3      29.91R
WICHITA INTL   CLOUDY    79  68  69 E9        29.85S
WICHITA JABRA  CLOUDY    74  69  85 E8        29.87R
WICHITA MCCONL CLOUDY    76  72  86 E6        29.87R
WINFIELD       CLOUDY    77  68  73 S9        29.87R
$$

KSZ007>012-019>026-033>040-048>060-102>105-180500-
NORTHEAST KANSAS

CITY           SKY/WX    TMP DP  RH WIND       PRES   REMARKS
CONCORDIA      PTCLDY    66  65  96 E9        29.93R
EMPORIA        MOCLDY    68  67  96 E8        29.92R
LAWRENCE       FOG       60  59  96 CALM      29.95R VSB 1/4
MANHATTAN      PTCLDY    68  66  93 E8        29.93R
MARYSVILLE     CLEAR     63  61  94 SE3       29.95R FOG
OLATHE IND     PTCLDY    66  65  96 E7        29.96R FOG
OLATHE EXE     CLEAR     64  64 100 SE3       29.95R FOG
SALINA         MOCLDY    72  66  81 E10       29.91R
TOPEKA BILLARD CLEAR     65  64  97 NE3       29.95R FOG
TOPEKA FORBES  CLEAR     63  61  93 E5        29.95R FOG
$$


USA.gov is the U.S. government's official web portal to all federal, state and local government web resources and services.